Regional Weather Roundup
Issued by NWS Jackson, KY

Home | Current Version | Previous Version | Text Only | Print | Product List | Glossary Off
Versions: 1 2 3 4 5 6 7 8 9 10 11 12 13 14 15 16 17 18 19 20 21 22 23 24 25 26 27 28 29 30 31 32 33 34 35 36 37 38 39 40 41 42 43 44 45 46 47 48 49 50

231
ASUS43 KJKL 240310
RWRJKL

EAST KENTUCKY HOURLY WEATHER ROUNDUP
NATIONAL WEATHER SERVICE JACKSON KY
1100 PM EDT FRI SEP 23 2016

NOTE: "FAIR" INDICATES FEW OR NO CLOUDS BELOW 12,000 FEET WITH
NO SIGNIFICANT WEATHER AND/OR OBSTRUCTIONS TO VISIBILITY.

* THESE REPORTS ARE NOT UNDER NWS QUALITY CONTROL AND MAY NOT
  REPORT WEATHER SUCH AS PRECIPITATION AND FOG.

KYZ079-080-083-085-087-088-110-112-115-119-120-240400
...EASTERN KENTUCKY...

CITY           SKY/WX    TMP DP  RH WIND       PRES   REMARKS
JACKSON        CLEAR     76  62  62 CALM      30.10S
LONDON         CLEAR     69  63  81 CALM      30.10S
SOMERSET*      CLEAR     68  66  94 CALM      30.10S
MONTICELLO*    CLEAR     64  62  93 NW9       30.11R
WILLIAMSBURG*  CLEAR     66  66 100 CALM      30.11R
MIDDLESBORO*   CLEAR     67  65  96 CALM      30.12S
HARLAN APT*    CLEAR     66  63  88 CALM      30.13S
PIKE CO APT*     N/A     74  65  71 CALM      30.11S
BIG SANDY APT* PTCLDY    73  66  80 CALM      30.09S
MOREHEAD APT*  CLEAR     73  64  73 CALM      30.10R
ASHLAND*       CLEAR     70  66  88 CALM      30.04S
$$

KYZ035-036-041-042-044-050-067-078-099-240400
...CENTRAL KENTUCKY...

CITY           SKY/WX    TMP DP  RH WIND       PRES   REMARKS
MT STERLING*   CLEAR     68  66  94 SW5       30.10R
FLEMING/MASON* CLEAR     75  62  64 S3        30.09R
DANVILLE*      CLEAR     68  64  88 CALM      30.10S
LEXINGTON      CLEAR     73  63  70 CALM      30.09R
FRANKFORT      CLEAR     70  64  81 CALM      30.06S
LOUISVILLE     CLEAR     79  64  60 W5        30.05S
LEBANON*         N/A     72  66  83 S3        30.09R HAZE
GLASGOW*       CLEAR     68  68 100 CALM      30.08S
BOWLING GREEN  CLEAR     71  67  87 CALM      30.07R
$$

KYZ091>093-OHZ055-061-077-WVZ005-015-034-035-042-240400
...SOUTHERN OHIO/WEST VIRGINIA...

CITY           SKY/WX    TMP DP  RH WIND       PRES   REMARKS
COVINGTON      CLEAR     72  65  78 CALM      30.07S
COLUMBUS       PTCLDY    75  65  70 N5        30.06R
DAYTON         PTCLDY    73  64  73 N7        30.08R
WILMINGTON     CLEAR     68  64  87 CALM      30.07S
HUNTINGTON     CLEAR     72  62  71 CALM      30.06S
CHARLESTON     PTCLDY    70  63  78 CALM      30.07R
PINEVILLE*     CLEAR     64  61  89 MISG      30.18R
BECKLEY        CLEAR     66  59  78 S5        30.16S
BLUEFIELD      CLEAR     67  60  78 W5        30.19R
LOGAN CO APT*    N/A     72  64  78 CALM      30.10S
$$

VAZ002-007-008-TNZ017-027-036-066-071-240400
...SOUTHWEST VIRGINIA/EAST TENNESSEE...

CITY           SKY/WX    TMP DP  RH WIND       PRES   REMARKS
WISE*          CLEAR     70  54  56 CALM      30.20R
JONESVILLE*      N/A     66  64  94 CALM      30.14R
ABINGDON*      CLEAR     68  63  82 CALM      30.14S
BRISTOL        CLEAR     66  62  87 CALM      30.11R
MORRISTOWN*    CLEAR     72  63  73 CALM      30.09S
SEVIERVILLE*   CLEAR     68  61  77 CALM      30.08R
KNOXVILLE      PTCLDY    74  63  68 CALM      30.06S
OAK RIDGE      CLEAR     72  66  81 CALM      30.09R
CROSSVILLE     CLEAR     67  63  87 CALM      30.14S
NASHVILLE      CLEAR     77  64  64 CALM      30.06R
$$

...KEY TO REMARKS...
VSB - VISIBILITY IN MILES
WCI - WIND CHILL INDEX
HX  - HEAT INDEX

$$




USA.gov is the U.S. government's official web portal to all federal, state and local government web resources and services.